DW3637 Weather Reports


time (UTC)temp
C
wind
direction
speed
KPH
gust
KPH
rain 1hr
cm
rain 24hr
cm
rain mn
cm
humidity
%
barometer
mb
20260506184516 16 248 4.8 14.5 0.05 0.10 0.10 91 1006.0
20260506183556 16 248 3.2 14.5 0.08 0.10 0.10 90 1006.0
20260506182516 16 248 1.6 6.4 0.08 0.08 0.08 90 1006.2
20260506181516 16 248 3.2 9.7 0.08 0.08 0.08 90 1006.2
20260506180516 16 225 4.8 14.5 0.08 0.08 0.08 89 1005.8
20260506175516 16 248 3.2 9.7 0.05 0.05 0.05 88 1006.1
20260506174516 17 225 4.8 9.7 0.05 0.05 0.05 86 1006.1
20260506173516 17 248 3.2 11.3 0.03 0.03 0.03 84 1006.7
20260506172529 17 248 3.2 9.7 0.00 0.00 0.00 82 1006.7
20260506171537 18 225 4.8 12.9 0.00 0.00 0.00 79 1007.1
20260506170536 18 225 8.0 19.3 0.00 0.00 0.00 77 1007.1
20260506165537 19 248 6.4 22.5 0.00 0.00 0.00 75 1007.0
20260506164515 20 248 6.4 19.3 0.00 0.00 0.00 72 1006.9
20260506163516 20 248 8.0 17.7 0.00 0.00 0.00 70 1006.7
20260506162516 20 248 4.8 8.0 0.00 0.00 0.00 69 1006.8
20260506161516 20 248 4.8 11.3 0.00 0.00 0.00 69 1006.8
20260506160524 20 248 3.2 9.7 0.00 0.00 0.00 71 1007.1
20260506155516 20 248 6.4 16.1 0.00 0.00 0.00 71 1007.3
20260506154516 20 248 6.4 14.5 0.00 0.00 0.00 72 1007.5
20260506153556 20 248 4.8 12.9 0.00 0.00 0.00 72 1007.5
20260506152538 19 270 4.8 11.3 0.00 0.00 0.00 73 1007.7
20260506151535 19 248 3.2 11.3 0.00 0.00 0.00 74 1007.7
20260506150518 18 225 6.4 14.5 0.00 0.00 0.00 75 1007.8
20260506145515 18 248 4.8 11.3 0.00 0.00 0.00 76 1007.9
20260506144517 18 270 3.2 11.3 0.00 0.00 0.00 77 1008.0
20260506143537 18 248 3.2 8.0 0.00 0.00 0.00 77 1008.0
20260506142517 18 248 6.4 17.7 0.00 0.00 0.00 78 1008.2
20260506141517 18 248 4.8 14.5 0.00 0.00 0.00 79 1008.1
20260506140523 17 225 6.4 14.5 0.00 0.00 0.00 79 1008.2
20260506135520 17 248 4.8 12.9 0.00 0.00 0.00 80 1008.0
20260506134537 17 248 6.4 14.5 0.00 0.00 0.00 80 1008.0
20260506133517 17 248 3.2 9.7 0.00 0.00 0.00 81 1007.9
20260506132517 17 225 3.2 8.0 0.00 0.00 0.00 82 1008.0
20260506131517 16 248 6.4 11.3 0.00 0.00 0.00 82 1008.3
20260506130517 16 248 1.6 4.8 0.00 0.00 0.00 84 1008.1
20260506125518 16 225 4.8 12.9 0.00 0.00 0.00 83 1008.1
20260506124537 16 248 6.4 17.7 0.00 0.00 0.00 83 1008.5
20260506123537 16 225 3.2 9.7 0.00 0.00 0.00 84 1008.5
20260506122517 16 248 3.2 8.0 0.00 0.00 0.00 84 1008.7
20260506121517 16 248 1.6 6.4 0.00 0.00 0.00 84 1008.5
20260506120519 15 225 4.8 17.7 0.00 0.00 0.00 84 1008.5
20260506115517 15 248 3.2 14.5 0.00 0.00 0.00 84 1008.5
20260506114537 15 225 4.8 9.7 0.00 0.00 0.00 85 1008.5
20260506113517 15 225 3.2 11.3 0.00 0.00 0.00 85 1008.7
20260506112517 15 248 4.8 12.9 0.00 0.00 0.00 85 1008.6
20260506111517 15 225 3.2 11.3 0.00 0.00 0.00 86 1008.5
20260506110517 15 248 3.2 9.7 0.00 0.00 0.00 87 1009.0
20260506105518 15 248 3.2 9.7 0.00 0.00 0.00 87 1008.8
20260506104517 15 248 4.8 9.7 0.00 0.00 0.00 87 1008.9
20260506103517 15 248 3.2 6.4 0.00 0.00 0.00 86 1008.8
20260506102517 15 248 4.8 8.0 0.00 0.00 0.00 87 1008.6
20260506101517 14 248 3.2 12.9 0.00 0.00 0.00 87 1008.5
20260506100517 14 248 3.2 6.4 0.00 0.00 0.00 86 1008.5
20260506095519 14 248 3.2 8.0 0.00 0.00 0.00 86 1008.4
20260506094517 15 248 3.2 9.7 0.00 0.00 0.00 86 1008.5
20260506093517 15 225 3.2 11.3 0.00 0.00 0.00 85 1008.6
20260506092517 15 248 3.2 6.4 0.00 0.00 0.00 85 1008.5
20260506091517 15 248 1.6 4.8 0.00 0.00 0.00 84 1008.4
20260506090517 15 248 4.8 12.9 0.00 0.00 0.00 84 1008.6
20260506085518 15 248 4.8 8.0 0.00 0.00 0.00 84 1008.5
20260506084537 15 225 3.2 12.9 0.00 0.00 0.00 83 1008.6
20260506083518 15 248 3.2 6.4 0.00 0.00 0.00 83 1008.7
20260506082517 15 248 4.8 11.3 0.00 0.00 0.00 82 1008.7
20260506081542 15 248 3.2 6.4 0.00 0.00 0.00 82 1008.7
20260506080537 15 225 1.6 4.8 0.00 0.00 0.00 82 1008.7
20260506073518 15 248 3.2 11.3 0.00 0.00 0.00 80 1008.6
20260506072516 16 248 4.8 11.3 0.00 0.00 0.00 80 1008.7
20260506071517 16 225 1.6 6.4 0.00 0.00 0.00 79 1008.6
20260506070537 16 225 3.2 6.4 0.00 0.00 0.00 79 1008.6
20260506062517 16 203 1.6 6.4 0.00 0.00 0.00 76 1008.2
20260506061517 17 248 6.4 12.9 0.00 0.00 0.00 76 1008.2
20260506060556 17 225 4.8 19.3 0.00 0.00 0.00 75 1008.3
20260506050517 17 225 6.4 16.1 0.00 0.00 0.00 70 1008.4
20260506044516 17 248 3.2 11.3 0.00 0.00 0.00 70 1008.6
20260506043516 17 225 3.2 8.0 0.00 0.00 0.00 70 1008.5
20260506042557 17 248 3.2 9.7 0.00 0.00 0.00 70 1008.5
20260506041518 17 248 3.2 12.9 0.00 0.00 0.00 69 1008.6
20260506040517 17 248 3.2 9.7 0.00 0.00 0.00 69 1008.6
20260506035517 17 225 3.2 8.0 0.00 0.00 0.00 69 1008.6
20260506034517 17 225 3.2 11.3 0.00 0.00 0.00 69 1008.6
20260506033541 17 248 3.2 12.9 0.00 0.00 0.00 68 1008.7
20260506032520 17 225 3.2 8.0 0.00 0.00 0.00 68 1008.7
20260506031519 17 248 3.2 11.3 0.00 0.00 0.00 67 1008.7
20260506030520 17 248 6.4 17.7 0.00 0.00 0.00 67 1008.9
20260506025517 17 225 6.4 14.5 0.00 0.00 0.00 66 1008.6
20260506024523 17 248 3.2 11.3 0.00 0.00 0.00 66 1008.7
20260506023517 18 248 4.8 12.9 0.00 0.00 0.00 66 1008.6
20260506022517 18 248 3.2 9.7 0.00 0.00 0.00 65 1008.6
20260506021537 18 248 3.2 12.9 0.00 0.00 0.00 64 1008.5
20260506020518 18 248 3.2 9.7 0.00 0.00 0.00 64 1008.4
20260506015516 18 248 3.2 9.7 0.00 0.00 0.00 63 1008.4
20260506014517 18 248 3.2 9.7 0.00 0.00 0.00 62 1008.3
20260506013517 18 248 4.8 14.5 0.00 0.00 0.00 62 1008.2
20260506012517 19 248 6.4 19.3 0.00 0.00 0.00 61 1008.1
20260506011516 19 225 3.2 11.3 0.00 0.00 0.00 61 1008.0
20260506010517 20 248 3.2 12.9 0.00 0.00 0.00 61 1007.8
20260506005516 20 248 4.8 12.9 0.00 0.00 0.00 60 1007.7
20260506004516 20 248 4.8 12.9 0.00 0.00 0.00 60 1007.6
20260506003516 20 248 6.4 16.1 0.00 0.00 0.00 59 1007.5
20260506002516 20 248 3.2 12.9 0.00 0.00 0.00 59 1007.4
20260506001516 20 225 6.4 17.7 0.00 0.00 0.00 58 1007.3
20260506000517 21 248 6.4 16.1 0.00 0.00 0.00 58 1007.0
20260505235516 21 225 8.0 17.7 0.00 0.00 0.00 56 1006.9
20260505234536 21 225 4.8 14.5 0.00 0.00 0.00 56 1006.6
20260505233516 21 248 9.7 22.5 0.00 0.00 0.00 55 1006.5
20260505232517 22 248 6.4 17.7 0.00 0.00 0.00 55 1006.3
20260505231516 22 248 6.4 16.1 0.00 0.00 0.00 54 1006.2
20260505230516 22 248 6.4 14.5 0.00 0.00 0.00 53 1006.1
20260505225517 23 248 8.0 19.3 0.00 0.00 0.00 51 1006.0
20260505224536 23 248 6.4 14.5 0.00 0.00 0.00 51 1005.9
20260505223525 23 225 8.0 16.1 0.00 0.00 0.00 50 1005.7
20260505222536 23 248 6.4 17.7 0.00 0.00 0.00 50 1005.7
20260505221516 24 225 6.4 20.9 0.00 0.00 0.00 49 1005.7
20260505220516 24 248 8.0 20.9 0.00 0.00 0.00 48 1005.5
20260505215516 24 225 9.7 22.5 0.00 0.00 0.00 48 1005.4
20260505214516 25 248 9.7 20.9 0.00 0.00 0.00 47 1005.2
20260505213517 25 248 11.3 22.5 0.00 0.00 0.00 47 1005.2
20260505212536 25 248 9.7 19.3 0.00 0.00 0.00 47 1005.5
20260505211516 25 225 9.7 20.9 0.00 0.00 0.00 47 1005.3
20260505210516 25 225 12.9 24.1 0.00 0.00 0.00 46 1005.2
20260505205516 26 248 9.7 24.1 0.00 0.00 0.00 45 1005.2
20260505204521 26 248 9.7 19.3 0.00 0.00 0.00 44 1004.9
20260505203525 26 248 8.0 16.1 0.00 0.00 0.00 45 1004.8
20260505202517 26 248 11.3 22.5 0.00 0.00 0.00 44 1004.9
20260505201516 27 248 9.7 27.4 0.00 0.00 0.00 43 1004.9
20260505200536 27 248 11.3 29.0 0.00 0.00 0.00 42 1005.0
20260505195516 27 248 8.0 20.9 0.00 0.00 0.00 41 1005.0
20260505194516 27 248 9.7 22.5 0.00 0.00 0.00 41 1004.9
20260505193516 27 225 11.3 24.1 0.00 0.00 0.00 41 1005.0
20260505192516 27 248 8.0 16.1 0.00 0.00 0.00 42 1005.0
20260505191616 27 248 11.3 24.1 0.00 0.00 0.00 42 1005.0
20260505190517 27 248 9.7 22.5 0.00 0.00 0.00 41 1005.2
20260505185516 27 248 11.3 25.7 0.00 0.00 0.00 41 1005.4